This demonstration page uses our WeatherBlox Daily Observations layout. Learn more.

Left ArrowRight Arrow

36.19886, -115.1175

Hourly Observations for May 20, 2021

Temp ( °F °C ) Dew Point ( °F °C ) Humidity (%) Winds ( mph kmh ) Pressure ( in mb ) Visibility ( mi km ) Precip ( " mm )
12:53 am 00:53 Clear 77 25 25 -3.9 14 14 S 18 30 29.48 998 10 16 N/A
1:53 am 01:53 Clear 76 24.4 26 -3.3 16 16 SSW 13 20 29.47 998 10 16 N/A
2:53 am 02:53 Clear 76 24.4 26 -3.3 16 16 S 15 24 29.47 998 10 16 N/A
3:53 am 03:53 Clear 74 23.3 27 -2.8 17 17 SSW 10 17 29.48 998 10 16 N/A
4:53 am 04:53 Clear 72 22.2 29 -1.7 20 20 S 14 22 29.49 999 10 16 N/A
5:53 am 05:53 Sunny 71 21.7 30 -1.1 22 22 SSE 24 39 29.49 999 10 16 N/A
6:53 am 06:53 Sunny 72 22.2 31 -0.6 22 22 S 21 33 29.52 1000 10 16 N/A
7:53 am 07:53 Sunny 74 23.3 30 -1.1 20 20 SSE 18 30 29.54 1000 10 16 N/A
8:53 am 08:53 Sunny 76 24.4 29 -1.7 18 18 S 23 37 29.54 1000 10 16 N/A
9:53 am 09:53 Sunny 78 25.6 28 -2.2 16 16 S 21 33 29.55 1001 10 16 N/A
10:53 am 10:53 Sunny 81 27.2 26 -3.3 13 13 S 29 46 29.54 1000 10 16 N/A
11:53 am 11:53 Sunny 84 28.9 19 -7.2 9 9 S 24 39 29.52 1000 10 16 N/A
12:53 pm 12:53 Sunny 85 29.4 7 -13.9 5 5 S 26 43 29.52 1000 10 16 N/A
1:53 pm 13:53 Sunny 86 30 1 -17.2 4 4 S 25 41 29.50 999 10 16 N/A
2:53 pm 14:53 Sunny 87 30.6 -5 -20.6 3 3 SSW 26 43 29.47 998 10 16 N/A
3:53 pm 15:53 Partly Cloudy with Blowing Dust 86 30 -7 -21.7 2 2 S 36 57 29.45 997 10 16 N/A
4:53 pm 16:53 Mostly Cloudy with Blowing Dust 85 29.4 -10 -23.3 2 2 SSW 25 41 29.45 997 9 14 N/A
5:53 pm 17:53 Partly Cloudy with Blowing Dust 83 28.3 -13 -25 2 2 S 28 44 29.46 998 10 16 N/A
6:53 pm 18:53 Sunny with Blowing Dust 80 26.7 -17 -27.2 2 2 SW 20 31 29.47 998 10 16 N/A
7:53 pm 19:53 Clear with Blowing Dust 76 24.4 -10 -23.3 3 3 WSW 17 28 29.49 999 10 16 N/A
8:53 pm 20:53 Clear with Blowing Dust 72 22.2 -1 -18.3 5 5 SW 18 30 29.52 1000 10 16 N/A
9:53 pm 21:53 Clear with Blowing Dust 70 21.1 7 -13.9 8 8 SW 26 43 29.52 1000 10 16 N/A
10:53 pm 22:53 Clear with Blowing Dust 67 19.4 9 -12.8 10 10 SSE 9 15 29.57 1001 10 16 N/A
11:53 pm 23:53 Clear with Blowing Dust 66 18.9 10 -12.2 11 11 SSW 13 20 29.58 1002 10 16 N/A

Powered by AerisWeather